Regional Weather Roundup
Issued by NWS

Home | Current Version | Previous Version | Graphics & Text | Print | Product List | Glossary On
Versions: 1 2 3 4 5 6 7 8 9 10 11 12 13 14 15 16 17 18 19 20 21 22 23 24 25 26 27 28 29 30 31 32 33 34 35 36 37 38 39 40 41 42 43 44 45 46 47 48 49 50
000
ASUS43 KDMX 260206
RWRIA

WEATHER ROUNDUP FOR IOWA
NATIONAL WEATHER SERVICE DES MOINES IA
900 PM CDT TUE JUL 25 2017

NOTE: "FAIR" INDICATES FEW OR NO CLOUDS BELOW 12,000 FEET WITH NO
SIGNIFICANT WEATHER AND/OR OBSTRUCTIONS TO VISIBILITY.

* - THESE STATIONS ARE NOT NWS STATIONS...THUS NOT UNDER NWS
QUALITY CONTROL.  THEY ALSO DO NOT REPORT WEATHER SUCH
AS PRECIPITATION OR FOG.

IAZ001>003-012>014-020>022-031>034-043>046-260300-
   NORTHWEST IOWA

CITY           SKY/WX    TMP DP  RH WIND       PRES   REMARKS
CARROLL *      CLOUDY    79  75  89 S7        29.97R HX  82
CHEROKEE *     CLOUDY    82  75  80 S6        29.95R HX  88
DENISON *      CLOUDY    82  75  78 SE12G17   29.97R HX  89
ORANGE CITY *  CLOUDY    82  77  83 SE6       29.94R HX  91
SHELDON *      CLOUDY    81  75  83 SE7       29.94R HX  86
SIOUX CITY     CLOUDY    85  76  74 SE8       29.91R HX  94
SPENCER        CLOUDY    82  74  76 SE7       29.98R HX  88
STORM LAKE *   CLOUDY    81  75  83 S7        29.99R HX  86
$$

IAZ055>058-069>071-079>083-090>094-260300-
   SOUTHWEST IOWA

CITY           SKY/WX    TMP DP  RH WIND       PRES   REMARKS
ATLANTIC *     MOCLDY    84  75  74 S7G14     29.97S HX  92
AUDUBON *      CLOUDY    82  75  78 CALM      29.99R HX  89
CLARINDA *     CLOUDY    84  77  79 S8        29.99F HX  94
COUNCIL BLFS * MOCLDY    84  75  74 S15       29.95S HX  92
CRESTON *      MOCLDY    81  75  83 SE10      30.02S HX  86
HARLAN  *      CLOUDY    82  77  83 S12       29.99R HX  91
LAMONI         CLOUDY    82  75  79 SE7       30.03S HX  89
RED OAK *      MOCLDY    82  77  83 SE8       29.96F HX  91
SHENANDOAH *   MOCLDY    84  75  74 SE8       29.96F HX  92
$$

IAZ047>049-059>061-072>074-084-260300-
   CENTRAL IOWA

CITY           SKY/WX    TMP DP  RH WIND       PRES   REMARKS
AMES           CLOUDY    81  74  79 SE8       29.98F HX  86
ANKENY *       CLOUDY    84  72  65 S12       30.00S HX  89
BOONE *        CLOUDY    81  73  78 SE8       29.99R HX  85
CHARITON *     CLOUDY    82  72  69 SE9       30.03S HX  87
DES MOINES     CLOUDY    86  71  60 S13       29.98F HX  91
GRINNELL*      CLOUDY    78  69  72 SE9       30.05S HX  80
KNOXVILLE *    CLOUDY    82  70  65 SE9G15    30.01S HX  86
MARSHALLTOWN   CLOUDY    80  70  71 SE12      30.01R HX  83
NEWTON *       CLOUDY    79  70  73 SE10      30.02F HX  81
PELLA *        CLOUDY    82  67  59 SE8       30.03S HX  85
PERRY *          N/A     80  75  83 S7        29.98S HX  85
$$

IAZ004>006-015-016-023>025-035-036-260300-
   NORTH CENTRAL IOWA

CITY           SKY/WX    TMP DP  RH WIND       PRES   REMARKS
ALGONA *       CLOUDY    81  73  78 SE6       29.99R HX  85
ESTHERVILLE    CLOUDY    77  74  90 E5        29.99R
FORT DODGE *   CLOUDY    84  70  61 SE3       30.00R HX  88
MASON CITY     CLOUDY    77  70  79 SE7       30.03R
FOREST CITY *    N/A     77  72  83 SE6       30.01R
WEBSTER CITY * CLOUDY    81  73  78 SE8       29.97R HX  85
IOWA FALLS *     N/A     78  71  77 SE8       30.02S HX  81
$$

IAZ007>011-017>019-026>030-037>042-050>054-066-260300-
   NORTHEAST IOWA

CITY           SKY/WX    TMP DP  RH WIND       PRES   REMARKS
CHARLES CITY * CLOUDY    75  72  88 SE6       30.04R
DECORAH *      CLOUDY    73  68  83 S8        30.04S
DUBUQUE        CLOUDY    72  67  84 S9        30.10R
MONTICELLO *   CLOUDY    73  70  88 SE6       30.07R
OELWEIN *      CLOUDY    73  72  94 SE7       30.05S
$$

IAZ064-065-067-068-078-260300-
   EAST CENTRAL IOWA

CITY           SKY/WX    TMP DP  RH WIND       PRES   REMARKS
DAVENPORT      CLEAR     74  67  78 SE7       30.11R
MT. PLEASANT * CLOUDY    74  68  81 SE5       30.08R
MUSCATINE *    CLOUDY    77  68  73 SE5       30.08R
QUAD CITIES    CLEAR     73  68  84 SE3       30.09R
$$

IAZ062-063-075>077-085>089-095>099-260300-
   SOUTHEAST IOWA

CITY           SKY/WX    TMP DP  RH WIND       PRES   REMARKS
BURLINGTON     CLOUDY    78  71  79 SE5       30.08R HX  80
FAIRFIELD *    PTCLDY    81  66  61 SE10      30.06R HX  83
FORT MADISON * CLOUDY    75  70  83 SE5       30.09R
KEOKUK *       CLOUDY    79  70  73 E6        30.07R HX  81
OSKALOOSA *      N/A     79  66  65 S6        30.05R HX  81
CENTERVILLE *    N/A     77  70  78 CALM      30.07S
OTTUMWA        CLOUDY    81  66  60 S8        30.05R HX  83
WASHINGTON *   CLOUDY    75  72  88 SE6       30.08R
$$

ABBREVIATIONS USED IN REMARKS
   TC - TEMPERATURES IN CELSIUS
  WCI - WIND CHILL INDEX
   HX - HEAT INDEX
  VSB - VISIBILITY
$$




USA.gov is the U.S. government's official web portal to all federal, state and local government web resources and services.